Location: Chaumontel
(49.1247°N, 2.4324°E)
Time: 22:54:01
(UTC+00:00)

Cosmos 1892 Rocket - Pass Details

Date: 03 February 2023
Orbit: 605 x 631 km, 82.5° (Epoch: 01 April)

Event Time Altitude Azimuth Distance (km) Brightness Sun altitude
Rises 18:41:49 0° 190° (S) 2,897 7.2 -18.5°
Reaches altitude 10° 18:44:02 10° 192° (SSW) 1,991 6.3 -18.8°
Maximum altitude 18:48:28 82° 279° (W) 633 3.6 -19.5°
Drops below altitude 10° 18:52:53 10° 8° (N) 1,991 6.0 -20.3°
Sets 18:55:07 0° 10° (N) 2,897 6.9 -20.6°
